Retour au catalogue

GHGSAT-C8

ActifScienceSSO
NORAD 56186·PAYLOAD·🇨🇦 Canada

Lancé Apr 15, 2023 depuis Vandenberg Space Force Base

Loading…

Prochains Passages (prochaines 24 heures)

TLE

FraisSource: Space-Track

Époque: Sep 14, 2026, 14:09 UTC

1 56186U 23054J   26257.59011454  .00013953  00000-0  20626-3 0  9991
2 56186  97.2894 168.4538 0006496  96.1830 264.0165 15.55410427192329

Suivez GHGSAT-C8 en temps réel avec AllMySat

Download on the App Store